[Iaude] MPEC M60: 2020 MY [a=2.21,e=0.62,i=12.3,H=20.6]

mpec at marsden.cfa.harvard.edu mpec at marsden.cfa.harvard.edu
Sun Jun 21 17:00:56 EDT 2020


M.P.E.C. 2020-M60                                 Issued 2020 June 21, 20:59 UT

     The Minor Planet Electronic Circulars contain information on unusual
         minor planets and routine data on comets.  They are published
    on behalf of Division F of the International Astronomical Union by the
          Minor Planet Center, Smithsonian Astrophysical Observatory,
                          Cambridge, MA 02138, U.S.A.

             Prepared using the Tamkin Foundation Computer Network

                              MPC at CFA.HARVARD.EDU
            URL https://www.minorplanetcenter.net/    ISSN 1523-6714

                                    2020 MY                                     


Observations:
     K20M00Y* C2020 06 19.49365919 32 38.153+43 49 55.93         20.19wUEM060F51
     K20M00Y  C2020 06 19.50629719 32 41.676+43 51 10.70         20.16wUEM060F51
     K20M00Y  C2020 06 19.51892419 32 45.190+43 52 24.96         20.49wUEM060F51
     K20M00Y  C2020 06 19.53155619 32 48.705+43 53 39.67         20.15wUEM060F51
     K20M00Y KC2020 06 19.91966019 34 47.97 +44 31 46.4                VEM060104
     K20M00Y KC2020 06 19.93118519 34 51.38 +44 32 56.6          19.2 GVEM060104
     K20M00Y KC2020 06 19.93190919 34 51.88 +44 32 57.8          20.1 GUEM060I93
     K20M00Y KC2020 06 19.93541119 34 52.95 +44 33 20.9          19.2 GVEM060B37
     K20M00Y KC2020 06 19.93846419 34 53.49 +44 33 40.6          19.3 GVEM060104
     K20M00Y HC2020 06 19.94358 19 34 55.10 +44 34 09.3                VEM060204
     K20M00Y KC2020 06 19.94857619 34 56.82 +44 34 39.8          19.0 GVEM060B37
     K20M00Y KC2020 06 19.94880319 34 56.91 +44 34 39.5          20.2 GUEM060I93
     K20M00Y KC2020 06 19.95649019 34 58.93 +44 35 26.9                VEM060203
     K20M00Y KC2020 06 19.95692 19 34 59.03 +44 35 29.1          20   GVEM060204
     K20M00Y KC2020 06 19.95933119 34 59.99 +44 35 42.6          19.9 GUEM060I93
     K20M00Y KC2020 06 19.96175919 35 00.77 +44 35 59.4          19.2 GVEM060B37
     K20M00Y KC2020 06 19.96789919 35 02.81 +44 36 37.9          20.5 GVEM060Z84
     K20M00Y KC2020 06 19.97509319 35 04.68 +44 37 20.4          19.9 GVEM060B37
     K20M00Y KC2020 06 19.98130919 35 06.80 +44 37 58.9          20.7 GVEM060Z84
     K20M00Y KC2020 06 19.98398719 35 06.98 +44 38 11.9          19.3 GVEM060203
     K20M00Y KC2020 06 19.99456 19 35 11.37 +44 39 20.5          19.9 GVEM060J04
     K20M00Y KC2020 06 19.99461419 35 10.01 +44 39 16.8          20.1 GVEM060L01
     K20M00Y KC2020 06 19.99548519 35 10.23 +44 39 22.2          19.8 GVEM060L01
     K20M00Y KC2020 06 19.99608 19 35 11.83 +44 39 30.0          20.0 GVEM060J04
     K20M00Y KC2020 06 19.99722519 35 10.77 +44 39 32.6          20.1 GVEM060L01
     K20M00Y KC2020 06 19.99809619 35 11.00 +44 39 37.4          20.0 GVEM060L01
     K20M00Y IC2020 06 19.99896619 35 11.28 +44 39 43.0          20.0 GVEM060L01
     K20M00Y KC2020 06 20.00289219 35 12.45 +44 40 05.8          20.1 GVEM060L01
     K20M00Y KC2020 06 20.00985719 35 14.73 +44 40 47.4          19.7 GVEM060203
     K20M00Y KC2020 06 20.24800819 36 30.39 +45 04 33.4          19.2 GVEM060858
     K20M00Y KC2020 06 20.25803119 36 33.48 +45 05 33.8                VEM060858
     K20M00Y KC2020 06 20.26726519 36 35.47 +45 06 30.6          20.2 VuEM060H21
     K20M00Y KC2020 06 20.26791519 36 36.50 +45 06 33.9          19.7 GVEM060858
     K20M00Y KC2020 06 20.27017219 36 36.36 +45 06 47.9          20.0 VuEM060H21
     K20M00Y KC2020 06 20.27307819 36 37.23 +45 07 05.4          19.9 VuEM060H21
     K20M00Y KC2020 06 20.89600619 40 01.13 +46 09 32.7          19.0 GVEM060K63
     K20M00Y KC2020 06 20.90001319 40 02.40 +46 09 56.4          20.4 GVEM060K63
     K20M00Y KC2020 06 20.90445319 40 03.89 +46 10 24.5          20.5 GVEM060K63
     K20M00Y KC2020 06 20.90797219 40 05.07 +46 10 46.0          20.1 GVEM060587
     K20M00Y KC2020 06 20.90872 19 40 05.20 +46 10 50.2          20.1 GVEM060587
     K20M00Y KC2020 06 20.91544 19 40 07.52 +46 11 33.3          20.1 GVEM060K83
     K20M00Y KC2020 06 20.92459 19 40 10.46 +46 12 29.6          21.0 GVEM060K83
     K20M00Y KC2020 06 20.93373 19 40 13.39 +46 13 25.5          20.2 GVEM060K83
     K20M00Y KC2020 06 20.99341 19 40 33.07 +46 19 29.0          19.6 GVEM060958
     K20M00Y KC2020 06 20.99415 19 40 34.25 +46 19 37.6          20.0 GVEM060J04
     K20M00Y KC2020 06 20.99493 19 40 34.48 +46 19 42.3          19.9 GVEM060J04
     K20M00Y KC2020 06 20.99572 19 40 34.74 +46 19 47.1          19.8 GVEM060J04
     K20M00Y KC2020 06 21.00076 19 40 35.50 +46 20 14.0          19.5 GVEM060958
     K20M00Y KC2020 06 21.01548 19 40 40.35 +46 21 43.0          20.1 GVEM060958
     K20M00Y KC2020 06 21.27856319 42 10.91 +46 48 27.5          19.3 GVEM060858
     K20M00Y KC2020 06 21.29169119 42 15.21 +46 49 48.2          19.3 GVEM060858
     K20M00Y KC2020 06 21.31947319 42 24.42 +46 52 39.0          19.5 GVEM060858

Observer details:
104 San Marcello Pistoiese.  Observers P. Bacci, M. Maestripieri, M. D.
    Grazia.  Measurers P. Bacci, L. Tesi, G. Fagioli.  0.60-m reflector + CCD.
203 GiaGa Observatory.  Observers S. Foglia, G. Galli.  Measurer G. Galli.
    0.36-m f/5.76 Schmidt-Cassegrain + CCD.
204 Schiaparelli Observatory.  Observer L. Buzzi.  0.84-m f/3.5 reflector +
    CCD.
587 Sormano.  Observers E. Colzani, G. Ventre.  Measurer P. Sicoli.  0.5-m
    f/6.8 reflector + CCD.
858 Tebbutt Observatory, Edgewood.  Observer F. B. Zoltowski.  0.51-m Schmidt-
    Cassegrain + CCD.
958 Observatoire de Dax.  Observer P. Dupouy.  0.51-m f/6 reflector + CCD.
B37 Obs. de L Ametlla del Valles, Barcelona.  Observer A. Garrigos.  0.51-m
    f/4.0 reflector + CCD.
F51 Pan-STARRS 1, Haleakala.  Observers J. Bulger, T. Lowe, A. Schultz, M.
    Willman.  Measurers K. Chambers, S. Chastel, T. de Boer, L. Denneau, J.
    Fairlamb, H. Flewelling, M. Huber, C.-C. Lin, E. Magnier, Y. Ramanjooloo,
    R. Wainscoat, R. Weryk.  1.8-m Ritchey-Chretien + CCD.
H21 Astronomical Research Observatory, Westfield.  Observer R. Holmes.
    Measurers S. Foglia, L. Buzzi, T. Linder, R. Holmes.  0.76-m f/3.0
    astrograph + CCD.
I93 St Pardon de Conques.  Observer F. Losse.  0.40-m f/3.7 reflector + CCD.
J04 ESA Optical Ground Station, Tenerife.  Observers P. Ruiz, D. Abreu.
    Measurers A. Knofel, D. Koschny, M. Busch, M. Micheli, E. Schwab.  1.0-m
    f/4.4 reflector + CCD.
K63 G. Pascoli Observatory, Castelvecchio Pascoli.  Observer R. Bacci.  0.4-m
    f/3.2 Newtonian reflector + CCD.
K83 Beppe Forti Astronomical Observatory, Montelupo.  Observers M. Tombelli,
    E. Biscardi, L. Grazzini, A. Mazzanti, G. Interrante.  Measurers M.
    Tombelli, Y. Mazzanti, M. Lombardo.
L01 Visnjan Observatory, Tican.  Observer K. Korlevic.  1.0-m f/2.9 reflector
    + CCD.
Z84 Calar Alto-Schmidt.  Observer E. Schwab.  Measurers E. Schwab, D. Koschny,
    M. Micheli.  0.8-m f/3 Schmidt + CCD.

Orbital elements:
2020 MY                                                  Earth MOID = 0.1128 AU
Epoch 2020 May 31.0 TT = JDT 2459000.5                  Pan
M 337.82615              (2000.0)            P               Q
n   0.30035334     Peri.  163.11067     +0.96333089     +0.26826837
a   2.2082474      Node   181.35924     -0.26418618     +0.94503297
e   0.6233222      Incl.   12.33438     -0.04689625     +0.18693518
P   3.28           H   20.6           G   0.15           U   8
Residuals in seconds of arc
200619 F51  0.1+  0.1+    200619 Z84  0.0   0.2-    200620 K63  0.4-  0.9-
200619 F51  0.1+  0.1+    200619 203  0.6-  0.5-    200620 K63  0.1+  0.1-
200619 F51  0.0   0.2-    200619 J04  0.1-  0.2-    200620 587  0.7+  0.9+
200619 F51  0.1-  0.1+    200619 L01  0.0   0.1+    200620 587  0.5-  0.5+
200619 104  0.3+  0.1+    200619 L01  0.5-  0.3+    200620 K83  0.8+  0.9+
200619 104  0.2+  0.8+    200619 J04  0.0   0.1+    200620 K83  0.5+  1.0+
200619 I93  0.2+  0.1+    200619 L01  0.2-  0.3+    200620 K83  0.1+  0.8+
200619 B37  0.3+  0.1+    200619 L01  0.5-  0.1-    200620 958  0.8-  0.5+
200619 104  0.3-  0.9+    200619 L01  0.2-  0.3+    200620 J04  0.0   0.3-
200619 204  0.4+  0.1+    200620 L01  0.1-  0.5-    200620 J04  0.3-  0.4-
200619 B37  0.2-  0.5-    200620 203  0.3+  0.1-    200620 J04  0.2-  0.5-
200619 I93  0.1+  0.2-    200620 858  0.1-  0.0     200621 958  0.3-  0.5+
200619 203  0.4+  0.2-    200620 858  0.4+  0.4-    200621 958  0.4+  0.5-
200619 204  0.1+  0.4-    200620 H21  0.1-  0.1+    200621 858  0.4+  0.3-
200619 I93  0.5-  0.6-    200620 858  0.6+  0.3-    200621 858  0.2-  0.5-
200619 B37  0.2+  0.4-    200620 H21  0.1+  0.2-    200621 858  0.2-  0.5-
200619 Z84  0.1-  0.3-    200620 H21  0.0   0.2-
200619 B37  0.3-  0.3+    200620 K63  0.0   0.0

Ephemeris:
2020 MY                  a,e,i = 2.21, 0.62, 12                  q = 0.8318
Date    TT    R. A. (2000) Decl.     Delta      r    Elong.  Phase     V
2020 05 22    18 24 21.6 +11 08 27   0.4953  1.3922   131.8    32.8    21.2
...
2020 06 06    18 49 33.7 +25 01 42   0.3565  1.2540   125.1    41.5    20.5
...
2020 06 14    19 10 33.8 +35 20 45   0.2998  1.1814   116.7    50.2    20.2
...
2020 06 20    19 35 10.9 +44 39 45   0.2665  1.1281   108.2    58.9    20.1
2020 06 21    19 40 34.0 +46 20 04   0.2618  1.1194   106.5    60.5    20.1
2020 06 22    19 46 27.4 +48 02 01   0.2574  1.1107   104.9    62.2    20.1
...
2020 06 28    20 37 29.0 +58 27 13   0.2370  1.0598    94.0    73.1    20.2
...
2020 07 06    23 07 14.9 +68 54 26   0.2278  0.9961    78.4    88.7    20.5
...
2020 07 21    04 00 08.4 +55 54 09   0.2693  0.8972    56.8   108.7    21.6

M. P. C. Staff               (C) Copyright 2020 MPC           M.P.E.C. 2020-M60




More information about the Iaude mailing list